Miscellaneous Local Product
Issued by NWS Hastings, NE

Home | Current Version | Previous Version | Graphics & Text | Print | Product List | Glossary On
Versions: 1 2 3 4 5 6 7 8 9 10 11 12 13 14 15 16 17 18 19 20 21 22 23 24 25 26 27 28 29 30 31 32 33 34 35 36 37 38 39 40 41 42 43 44 45 46 47 48 49 50
000
AXUS43 KGID 210302
MISGRI

GID CWA HOURLY WEATHER ROUNDUP
NATIONAL WEATHER SERVICE HASTINGS NE
1000 PM CDT WED MAY 20 2015

NOTE: "FAIR" INDICATES FEW OR NO CLOUDS BELOW 12,000 FEET WITH NO
SIGNIFICANT WEATHER AND/OR OBSTRUCTIONS TO VISIBILITY.

...SOUTH CENTRAL NEBRASKA...

CITY           SKY/WX    TMP DP  RH WIND       PRES   REMARKS
GRAND ISLAND   CLOUDY    47  42  83 N3        30.29R
HASTINGS       CLOUDY    47  42  83 N3        30.28R
KEARNEY        CLOUDY    45  39  81 N7        30.29R
ORD            CLEAR     40  36  86 W6        30.27R
YORK           CLOUDY    46  45  93 CALM      30.28R
AURORA         CLOUDY    47  44  90 CALM      30.28R
LEXINGTON      CLOUDY    45  40  85 NE5       30.29R
HOLDREGE       PTCLDY    43  39  85 NW3       30.29R
HEBRON         CLOUDY    48  40  74 N3        30.28R

...NEBRASKA PANHANDLE...

CITY           SKY/WX    TMP DP  RH WIND       PRES   REMARKS
CHADRON        CLEAR     38  33  82 SW8       30.30R WCI  32
ALLIANCE       CLOUDY    42  34  73 N3        30.30R
SCOTTSBLUFF    CLOUDY    44  35  70 E7        30.29S
SIDNEY         CLOUDY    43  36  76 NE6       30.30R

...WESTERN AND NORTH CENTRAL NEBRASKA...

CITY           SKY/WX    TMP DP  RH WIND       PRES   REMARKS
VALENTINE      CLEAR     41  37  86 SW9       30.28R
AINSWORTH      CLEAR     42  37  83 SW7       30.28R
ONEILL         CLEAR     44  38  80 SW6       30.26R
BROKEN BOW     CLEAR     41  38  89 NW5       30.29R
IMPERIAL       CLOUDY    47  40  76 CALM      30.30R
NORTH PLATTE   CLOUDY    45  38  76 NE6       30.30R
MCCOOK         CLOUDY    48  41  76 CALM      30.30R

...EASTERN NEBRASKA...

CITY           SKY/WX    TMP DP  RH WIND       PRES   REMARKS
NORFOLK        CLEAR     40  37  89 SW6       30.25R
SO SIOUX CITY  CLEAR     44  39  82 SW5       30.25R
TEKAMAH        CLEAR     45  41  86 W5        30.25R
COLUMBUS       MOCLDY    46  36  66 CALM      30.29R
ALBION         CLEAR     42  38  85 CALM      30.27R
OMAHA EPPLEY   PTCLDY    45  41  86 NW5       30.25R
OFFUTT AFB     CLOUDY    48  42  81 NW3       30.24R
MILLARD        PTCLDY    47  42  81 CALM      30.26R
LINCOLN        CLOUDY    48  41  76 N8        30.28R
NEBRASKA CITY  CLOUDY    47  43  85 N7        30.25R
BEATRICE       CLOUDY    47  42  81 N7        30.26R
FALLS CITY     CLOUDY    48  45  89 N5        30.24R

...NORTHERN KANSAS...

CITY           SKY/WX    TMP DP  RH WIND       PRES   REMARKS
GOODLAND       CLOUDY    45  38  76 NE7       30.30R
HILL CITY      PTCLDY    44  40  85 N6        30.29R
NORTON         CLOUDY    48  39  71 N3        30.29R
PHILLIPSBURG   CLEAR     48  43  81 N6        30.29S
SMITH CENTER   CLEAR     45  39  81 N6        30.30R
HAYS           CLOUDY    48  37  66 NE7       30.28R
RUSSELL        CLOUDY    48  43  82 NE6       30.26R
CONCORDIA      CLOUDY    49  42  77 N8        30.27R
SALINA         CLOUDY    52  44  74 N12       30.26R
TOPEKA         CLOUDY    51  46  83 N8        30.24R



USA.gov is the U.S. government's official web portal to all federal, state and local government web resources and services.